World > North America > United States > Texas > Panorama Village  

Panorama Village, TX Hourly Weather Updates

Feedback E-mail the Weather

Quick Clicks

Panorama Village, TX Weather Maps

°F °C°F °C
Panorama Village Weather Map
UTC Time: 6/18/2024, 08:29
Your Time:

Panorama Village, TX Regional Weather

Expires:202406180900;;221646
ASUS44 KSJT 180810
RWRSJT
WEST CENTRAL TEXAS REGIONAL WEATHER ROUNDUP
NATIONAL WEATHER SERVICE SAN ANGELO TX
300 AM CDT TUE JUN 18 2024

NOTE: "FAIR" INDICATES FEW OR NO CLOUDS BELOW 12,000 FEET WITH NO
SIGNIFICANT WEATHER AND/OR OBSTRUCTIONS TO VISIBILITY.


TXZ163-177-195>197-199-213-226-237-180900-
SOUTHEAST TEXAS
  
CITY           SKY/WX    TMP DP  RH WIND       PRES   REMARKS
COLLEGE STN    CLEAR     76  70  82 E7        29.84F TC  24           
CALDWELL       CLEAR     75  71  87 SE6       29.85F TC  24           
CROCKETT       CLOUDY    75  75 100 CALM      29.87F TC  24           
BRENHAM        CLEAR     75  72  90 CALM        N/A  TC  24           
HUNTSVILLE     PTCLDY    76  72  87 E6        29.86F TC  24           
CONROE         MOCLDY    74  72  93 E5        29.86F TC  23           
HOUSTON BUSH   PTCLDY    80  72  76 SE12      29.84F TC  27           
HOUSTON HOBBY  MOCLDY    81  71  71 SE12      29.83F TC  27           
PERLAND        CLOUDY    79  75  87 SE6       29.84F TC  26           
WHARTON        MOCLDY    77  74  89 E5        29.83F TC  25           
$$


SKY/WX - Weather  TMP - Temperature  DP - Dew Point  RH - Humidity
WIND - Wind Direction/Speed PRES - Barometric Pressure VSB - Visibility
WCI - Wind Chill Index E13G22 Wind - East Wind 13 mph/Gusts of 22 mph

Trending Headlines

Trending Entertainment Headlines

Panorama Village Radar Loop

Use the map search tool if you want to place a location marker on the radar map...

Panorama Village Quick Facts

National Two Day Weather Forecast


E-mail the Panorama Village Weather Forecast

Voice your opinion or tell us about page issues...